East Milton, MA

3:38 PM EDT on October 18, 2017 (GMT -0400)
East Milton

Weather History for KMQE - March, 2013

Change the Weather History Date:

Tuesday, March 5, 2013

  Actual Average (KOWD) Record (KOWD)
Temperature  
Mean Temperature 36 °F -  
Max Temperature 42 °F 40 °F 59 °F (2008)
Min Temperature 30 °F 23 °F 5 °F (2009)
Degree Days  
Heating Degree Days 29    
Moisture  
Dew Point 26 °F    
Average Humidity 69    
Maximum Humidity 85    
Minimum Humidity 53    
Precipitation  
Precipitation 0.00 in - - ()
Sea Level Pressure  
Sea Level Pressure 29.95 in    
Wind  
Wind Speed 12 mph (North)    
Max Wind Speed 17 mph    
Max Gust Speed 26 mph    
Averages and records for this station are not official NWS values.
T = Trace of Precipitation, MM = Missing Value Source: NWS Daily Summary

Daily Weather History Graph

Daily Weather History Graph

Search for Another Location

Airport or City:

Trip Planner

Search our weather history database for the weather conditions in past years. The results will help you decide how hot, cold, wet, or windy it might be!

Date:

Astronomy

Mar. 05, 2013 Rise Set
Actual Time 6:12 AM EST 5:39 PM EST
Civil Twilight 5:44 AM EST 6:07 PM EST
Nautical Twilight 5:12 AM EST 6:39 PM EST
Astronomical Twilight 4:39 AM EST 7:12 PM EST
Moon 1:26 AM EST (3/5) 11:10 AM EST (3/5)
Length of Visible Light 12h 22m
Length of Day
11h 26m
Last Quarter, 41% of the Moon is Illuminated
Mar 5
Last Quarter
Mar 11
New
Mar 19
First Quarter
Mar 27
Full
Apr 3
Last Quarter

Hourly Weather History & Observations

Time (EST) Temp. Windchill Dew Point Humidity Pressure Visibility Wind Dir Wind Speed Gust Speed Precip Events Conditions
12:54 AM 30.0 °F 18.7 °F 21.0 °F 69% 29.76 in - NW 16.1 mph 26.5 mph N/A   Unknown
1:54 AM 30.0 °F 18.7 °F 21.0 °F 69% 29.77 in - NW 16.1 mph 26.5 mph N/A   Unknown
2:54 AM 30.0 °F 20.0 °F 19.9 °F 66% 29.79 in - NW 12.7 mph 24.2 mph N/A   Unknown
3:54 AM 30.0 °F 18.3 °F 19.9 °F 66% 29.81 in - NW 17.3 mph 24.2 mph N/A   Unknown
4:54 AM 30.0 °F 19.1 °F 21.0 °F 69% 29.84 in - NW 15.0 mph 23.0 mph N/A   Unknown
5:54 AM 30.0 °F 19.1 °F 21.0 °F 69% 29.87 in - NNW 15.0 mph - N/A   Unknown
6:54 AM 30.0 °F 19.5 °F 21.0 °F 69% 29.89 in - NW 13.8 mph 20.7 mph N/A   Unknown
7:54 AM 30.9 °F 21.7 °F 21.0 °F 67% 29.92 in - NW 11.5 mph - N/A   Unknown
8:54 AM 34.0 °F 26.0 °F 21.9 °F 61% 29.94 in - NNW 10.4 mph - N/A   Unknown
9:54 AM 36.0 °F 29.6 °F 23.0 °F 59% 29.95 in - NNW 8.1 mph - N/A   Unknown
10:54 AM 39.9 °F 32.5 °F 25.0 °F 55% 29.95 in - North 12.7 mph 19.6 mph N/A   Unknown
11:54 AM 39.9 °F 35.1 °F 25.0 °F 55% 29.96 in - Variable 6.9 mph - N/A   Unknown
12:54 PM 41.0 °F 35.8 °F 26.1 °F 55% 29.96 in - North 8.1 mph - N/A   Unknown
1:54 PM 42.1 °F 37.1 °F 26.1 °F 53% 29.97 in - North 8.1 mph - N/A   Unknown
2:54 PM 42.1 °F 36.6 °F 28.9 °F 60% 29.99 in - NNE 9.2 mph - N/A   Unknown
3:54 PM 39.9 °F 34.5 °F 30.0 °F 68% 30.02 in - ENE 8.1 mph - N/A   Unknown
4:54 PM 37.9 °F 32.7 °F 30.0 °F 73% 30.03 in - ENE 6.9 mph - N/A   Unknown
5:54 PM 37.0 °F 29.8 °F 30.9 °F 79% 30.04 in - ENE 10.4 mph - N/A   Unknown
6:54 PM 36.0 °F 30.3 °F 30.9 °F 82% 30.05 in - ENE 6.9 mph - N/A   Unknown
7:54 PM 35.1 °F 28.6 °F 30.9 °F 85% 30.06 in - NE 8.1 mph - N/A   Unknown
8:54 PM 35.1 °F 28.6 °F 30.9 °F 85% 30.06 in - NNE 8.1 mph - N/A   Unknown
9:54 PM 36.0 °F 31.1 °F 30.9 °F 82% 30.06 in - NNE 5.8 mph - N/A   Unknown
10:54 PM 35.1 °F 30.1 °F 30.9 °F 85% 30.07 in - NW 5.8 mph - N/A   Unknown
11:54 PM 36.0 °F 29.0 °F 30.0 °F 79% 30.06 in - North 9.2 mph - N/A   Unknown